CW0506 Weather Reports


Display with metric or nautical units.
time (UTC)temp
F
wind
direction
speed
MPH
gust
MPH
rain 1hr
in
rain 24hr
in
rain mn
in
humidity
%
barometer
mb
20260504192913 71 35 4.0 9.0 0.00 0.00 0.00 36 1009.4
20260504192410 71 293 4.0 10.0 0.00 0.00 0.00 36 1009.5
20260504191909 71 313 16.0 17.0 0.00 0.00 0.00 35 1009.4
20260504191406 71 18 3.0 11.0 0.00 0.00 0.00 37 1009.5
20260504190901 71 289 8.0 24.0 0.00 0.00 0.00 36 1009.7
20260504190357 71 27 5.0 9.0 0.00 0.00 0.00 36 1009.8
20260504185854 71 313 5.0 17.0 0.00 0.00 0.00 37 1009.6
20260504185351 70 326 6.0 16.0 0.00 0.00 0.00 36 1009.9
20260504184847 71 317 12.0 15.0 0.00 0.00 0.00 35 1009.9
20260504184343 70 304 2.0 15.0 0.00 0.00 0.00 36 1009.8
20260504183839 70 348 8.0 17.0 0.00 0.00 0.00 36 1010.0
20260504183337 70 277 4.0 15.0 0.00 0.00 0.00 36 1009.8
20260504182834 70 85 2.0 15.0 0.00 0.00 0.00 39 1009.9
20260504182331 70 280 3.0 9.0 0.00 0.00 0.00 38 1010.1
20260504181828 70 300 5.0 18.0 0.00 0.00 0.00 39 1010.0
20260504181326 71 284 5.0 13.0 0.00 0.00 0.00 36 1010.3
20260504180824 70 16 3.0 11.0 0.00 0.00 0.00 39 1010.1
20260504180322 70 337 4.0 15.0 0.00 0.00 0.00 37 1010.3
20260504175820 71 5 6.0 9.0 0.00 0.00 0.00 36 1010.5
20260504175317 70 28 6.0 7.0 0.00 0.00 0.00 37 1010.6
20260504174815 71 328 6.0 13.0 0.00 0.00 0.00 36 1010.5
20260504174312 69 9 2.0 10.0 0.00 0.00 0.00 38 1010.4
20260504173809 69 315 11.0 18.0 0.00 0.00 0.00 37 1010.2
20260504173306 69 317 7.0 18.0 0.00 0.00 0.00 35 1010.5
20260504172803 69 25 7.0 15.0 0.00 0.00 0.00 35 1010.3
20260504172259 69 302 0.0 7.0 0.00 0.00 0.00 39 1010.4
20260504171755 68 332 5.0 12.0 0.00 0.00 0.00 37 1010.6
20260504171252 68 241 5.0 14.0 0.00 0.00 0.00 38 1010.6
20260504170749 69 317 6.0 11.0 0.00 0.00 0.00 36 1010.8
20260504170246 68 8 5.0 15.0 0.00 0.00 0.00 35 1010.8
20260504160205 66 272 9.0 17.0 0.00 0.00 0.00 40 1011.5
20260504151133 62 67 3.0 14.0 0.00 0.00 0.00 41 1012.1
20260504150630 64 323 10.0 12.0 0.00 0.00 0.00 39 1012.1
20260504150127 63 326 1.0 8.0 0.00 0.00 0.00 42 1012.0
20260504141055 63 225 2.0 17.0 0.00 0.00 0.00 44 1012.7
20260504140552 63 296 3.0 14.0 0.00 0.00 0.00 40 1012.5
20260504130516 58 280 4.0 14.0 0.00 0.00 0.00 47 1013.2
20260504110404 49 55 0.0 7.0 0.00 0.00 0.00 65 1013.5
20260504100321 40 130 1.0 4.0 0.00 0.00 0.00 86 1013.3
20260504081715 36 112 1.0 3.0 0.00 0.00 0.00 91 1012.7
20260504081211 36 324 0.0 1.0 0.00 0.00 0.00 91 1013.0
20260504080707 36 189 0.0 1.0 0.00 0.00 0.00 90 1012.8
20260504080204 36 230 0.0 2.0 0.00 0.00 0.00 90 1012.9
20260504070131 37 242 0.0 2.0 0.00 0.00 0.00 88 1013.0
20260504050520 36 223 0.0 2.0 0.00 0.00 0.00 90 1013.2
20260504050017 36 252 0.0 2.0 0.00 0.00 0.00 91 1013.1
20260504045514 35 282 0.0 2.0 0.00 0.00 0.00 91 1013.2
20260504045009 35 230 0.0 1.0 0.00 0.00 0.00 90 1013.1
20260504044507 36 142 1.0 2.0 0.00 0.00 0.00 90 1013.1
20260504044004 36 356 1.0 2.0 0.00 0.00 0.00 90 1013.1
20260504043500 36 176 0.0 2.0 0.00 0.00 0.00 90 1013.2
20260504042958 36 122 0.0 2.0 0.00 0.00 0.00 90 1013.1
20260504042454 36 324 0.0 1.0 0.00 0.00 0.00 90 1013.2
20260504041952 36 187 1.0 2.0 0.00 0.00 0.00 89 1013.3
20260504041448 37 30 0.0 1.0 0.00 0.00 0.00 89 1013.1
20260504040943 37 250 0.0 2.0 0.00 0.00 0.00 88 1013.0
20260504040441 37 183 0.0 2.0 0.00 0.00 0.00 87 1013.0
20260504035937 37 144 0.0 2.0 0.00 0.00 0.00 87 1013.1
20260504035435 37 189 0.0 2.0 0.00 0.00 0.00 86 1013.1
20260504034931 37 267 1.0 2.0 0.00 0.00 0.00 86 1013.1
20260504034429 37 264 1.0 2.0 0.00 0.00 0.00 86 1012.9
20260504033926 37 189 0.0 2.0 0.00 0.00 0.00 85 1012.8
20260504033424 37 113 0.0 1.0 0.00 0.00 0.00 85 1012.8
20260504032920 37 324 0.0 1.0 0.00 0.00 0.00 85 1012.8
20260504032417 37 226 0.0 1.0 0.00 0.00 0.00 84 1012.9
20260504031914 38 157 1.0 2.0 0.00 0.00 0.00 84 1012.8
20260504031411 38 286 0.0 2.0 0.00 0.00 0.00 84 1012.8
20260504030908 38 166 0.0 2.0 0.00 0.00 0.00 83 1012.6
20260504030405 38 155 0.0 2.0 0.00 0.00 0.00 83 1012.7
20260504025901 38 245 0.0 2.0 0.00 0.00 0.00 82 1012.5
20260504025358 38 247 0.0 1.0 0.00 0.00 0.00 81 1012.7
20260504024855 39 212 0.0 2.0 0.00 0.00 0.00 80 1012.8
20260504024351 39 164 2.0 2.0 0.00 0.00 0.00 80 1012.9
20260504023848 39 187 1.0 2.0 0.00 0.00 0.00 79 1012.7
20260504023345 39 140 2.0 2.0 0.00 0.00 0.00 78 1012.8
20260504022840 39 251 0.0 2.0 0.00 0.00 0.00 78 1012.8
20260504022337 39 203 0.0 2.0 0.00 0.00 0.00 78 1012.9
20260504021834 40 85 0.0 1.0 0.00 0.00 0.00 78 1012.9
20260504021331 40 172 0.0 0.0 0.00 0.00 0.00 77 1012.7
20260504020828 40 156 0.0 1.0 0.00 0.00 0.00 76 1012.5
20260504020325 41 189 0.0 1.0 0.00 0.00 0.00 74 1012.6
20260504015821 41 231 0.0 2.0 0.00 0.00 0.00 74 1012.5
20260504015317 41 147 2.0 3.0 0.00 0.00 0.00 73 1012.7
20260504014814 41 154 1.0 2.0 0.00 0.00 0.00 74 1012.4
20260504014309 42 134 0.0 2.0 0.00 0.00 0.00 72 1012.4
20260504013808 42 230 0.0 2.0 0.00 0.00 0.00 71 1012.4
20260504013305 43 175 0.0 2.0 0.00 0.00 0.00 70 1012.4
20260504012801 43 195 1.0 2.0 0.00 0.00 0.00 69 1012.3
20260504012300 43 189 0.0 1.0 0.00 0.00 0.00 67 1012.3
20260504011756 44 224 0.0 1.0 0.00 0.00 0.00 64 1012.2
20260504011253 44 224 0.0 2.0 0.00 0.00 0.00 62 1012.1
20260504010749 45 234 0.0 2.0 0.00 0.00 0.00 63 1012.1
20260504010244 46 204 0.0 2.0 0.00 0.00 0.00 64 1012.1
20260504005742 46 164 1.0 2.0 0.00 0.00 0.00 60 1011.8
20260504005238 46 154 1.0 2.0 0.00 0.00 0.00 62 1011.8
20260504004736 45 138 0.0 2.0 0.00 0.00 0.00 61 1011.6
20260504004233 45 153 0.0 2.0 0.00 0.00 0.00 59 1011.7
20260504003730 46 115 0.0 1.0 0.00 0.00 0.00 58 1011.5
20260504003227 46 219 0.0 2.0 0.00 0.00 0.00 56 1011.4
20260504002723 46 183 0.0 3.0 0.00 0.00 0.00 58 1011.4
20260504002220 46 146 2.0 2.0 0.00 0.00 0.00 56 1011.5
20260504001718 47 130 1.0 3.0 0.00 0.00 0.00 55 1010.9
20260504001215 47 148 0.0 3.0 0.00 0.00 0.00 54 1010.9
20260504000711 48 147 2.0 3.0 0.00 0.00 0.00 53 1011.0
20260504000208 49 150 1.0 2.0 0.00 0.00 0.00 50 1010.9
20260503235707 49 161 2.0 3.0 0.00 0.00 0.00 51 1010.9
20260503235203 50 129 1.0 2.0 0.00 0.00 0.00 47 1010.5
20260503234701 51 165 1.0 2.0 0.00 0.00 0.00 45 1010.6
20260503234159 52 145 1.0 3.0 0.00 0.00 0.00 43 1010.6
20260503233655 53 34 0.0 5.0 0.00 0.00 0.00 39 1010.5
20260503233151 53 204 0.0 3.0 0.00 0.00 0.00 40 1010.5
20260503232648 53 73 0.0 3.0 0.00 0.00 0.00 39 1010.4
20260503232146 54 101 3.0 4.0 0.00 0.00 0.00 38 1010.6
20260503231644 54 216 2.0 4.0 0.00 0.00 0.00 39 1010.4
20260503231140 54 188 3.0 3.0 0.00 0.00 0.00 38 1010.5
20260503230637 54 203 3.0 4.0 0.00 0.00 0.00 38 1010.4
20260503230134 54 91 4.0 7.0 0.00 0.00 0.00 38 1010.5
20260503225631 55 164 4.0 7.0 0.00 0.00 0.00 37 1010.4
20260503225131 56 180 5.0 7.0 0.00 0.00 0.00 36 1010.3
20260503224629 55 11 3.0 7.0 0.00 0.00 0.00 38 1010.5
20260503224126 55 118 2.0 6.0 0.00 0.00 0.00 37 1010.3
20260503223624 55 216 1.0 3.0 0.00 0.00 0.00 38 1010.4
20260503223120 55 102 2.0 7.0 0.00 0.00 0.00 36 1010.3
20260503222618 55 119 2.0 7.0 0.00 0.00 0.00 37 1010.3
20260503222115 55 86 2.0 6.0 0.00 0.00 0.00 37 1010.4
20260503221614 55 81 3.0 5.0 0.00 0.00 0.00 37 1010.2
20260503221111 55 91 3.0 7.0 0.00 0.00 0.00 36 1010.2
20260503220608 55 62 2.0 12.0 0.00 0.00 0.00 37 1010.0
20260503220104 55 22 7.0 11.0 0.00 0.00 0.00 38 1010.3
20260503215601 55 112 2.0 7.0 0.00 0.00 0.00 38 1010.3
20260503215058 54 189 3.0 10.0 0.00 0.00 0.00 40 1010.3
20260503214556 54 219 3.0 10.0 0.00 0.00 0.00 39 1010.4
20260503214052 54 235 0.0 5.0 0.00 0.00 0.00 39 1010.3
20260503213551 55 83 3.0 10.0 0.00 0.00 0.00 40 1010.3
20260503213047 54 165 5.0 10.0 0.00 0.00 0.00 38 1010.2
20260503212545 54 149 0.0 4.0 0.00 0.00 0.00 40 1010.5
20260503212042 55 126 3.0 10.0 0.00 0.00 0.00 39 1010.2
20260503211539 54 38 11.0 17.0 0.00 0.00 0.00 37 1010.5
20260503211034 55 304 7.0 7.0 0.00 0.00 0.00 39 1010.4
20260503210531 55 220 3.0 5.0 0.00 0.00 0.00 39 1010.3
20260503210027 55 346 2.0 6.0 0.00 0.00 0.00 40 1010.3
20260503205524 55 301 3.0 8.0 0.00 0.00 0.00 38 1010.2
20260503205020 55 63 6.0 11.0 0.00 0.00 0.00 37 1010.2
20260503204517 55 32 8.0 28.0 0.00 0.00 0.00 37 1010.1
20260503204014 56 34 4.0 8.0 0.00 0.00 0.00 38 1010.3
20260503203512 56 330 6.0 9.0 0.00 0.00 0.00 36 1010.0
20260503203009 54 218 3.0 17.0 0.00 0.00 0.00 37 1010.6
20260503202506 55 20 7.0 13.0 0.00 0.00 0.00 39 1010.2
20260503202004 55 47 5.0 12.0 0.00 0.00 0.00 38 1010.3
20260503201502 55 70 5.0 13.0 0.00 0.00 0.00 39 1010.3
20260503200959 55 342 12.0 15.0 0.00 0.00 0.00 37 1010.3
20260503200455 55 116 8.0 15.0 0.00 0.00 0.00 38 1010.3
20260503195952 55 14 11.0 17.0 0.00 0.00 0.00 37 1010.4
20260503195449 55 25 6.0 12.0 0.00 0.00 0.00 40 1010.2
20260503194945 55 46 3.0 17.0 0.00 0.00 0.00 38 1010.6
20260503194443 55 76 2.0 17.0 0.00 0.00 0.00 38 1010.1
20260503193938 53 142 2.0 16.0 0.00 0.00 0.00 39 1010.3
20260503193434 55 18 11.0 23.0 0.00 0.00 0.00 37 1010.4